Regional Weather Roundup
Issued by NWS

Home | Current Version | Previous Version | Text Only | Print | Product List | Glossary Off
Versions: 1 2 3 4 5 6 7 8 9 10 11 12 13 14 15 16 17 18 19 20 21 22 23 24 25 26 27 28 29 30 31 32 33 34 35 36 37 38 39 40 41 42 43 44 45 46 47 48 49 50

000
ASUS43 KOAX 210910
RWRNE

WEATHER ROUNDUP FOR NEBRASKA
NATIONAL WEATHER SERVICE OMAHA NE
400 AM CDT SUN SEP 21 2014

NOTES: SATELLITE DATA IS BEING USED TO AUGMENT CLOUD COVER ABOVE
       12000 FEET.
       "FAIR" INDICATES FEW OR NO CLOUDS BELOW 12,000 FEET WITH NO
       SIGNIFICANT WEATHER AND/OR OBSTRUCTIONS TO VISIBILITY.

  * THESE STATIONS DO NOT REPORT WEATHER SUCH AS RAIN...SNOW OR FOG.

NEZ001>004-019>022-054>056-211000-
NEBRASKA PANHANDLE

CITY           SKY/WX    TMP DP  RH WIND       PRES   REMARKS
SCOTTSBLUFF    MOCLDY    52  43  71 CALM      30.34R
ALLIANCE       PTCLDY    45  40  82 CALM      30.33S
CHADRON        CLEAR     40  38  93 SW5       30.32S
KIMBALL        MOCLDY    56  41  58 CALM      30.34F
SIDNEY         CLOUDY    58  44  60 N5        30.35R
$$

NEZ057>060-069>072-079>082-211000-
SOUTHWEST NEBRASKA

CITY           SKY/WX    TMP DP  RH WIND       PRES   REMARKS
NORTH PLATTE   CLEAR     45  42  89 NW3       30.26R
IMPERIAL       MOCLDY    55  45  68 NW5       30.28S
LEXINGTON      CLEAR     48  45  90 NW7       30.22S
MCCOOK         CLEAR     52  46  80 NW7       30.24S
OGALLALA       CLOUDY    53  50  90 CALM      30.29S
$$

NEZ005>010-023>029-035>040-094-211000-
NORTH CENTRAL NEBRASKA

CITY           SKY/WX    TMP DP  RH WIND       PRES   REMARKS
VALENTINE      CLEAR     46  39  76 NW8       30.26R
AINSWORTH      CLEAR     46  39  77 W7        30.24R
BROKEN BOW     CLEAR     53  41  63 N9        30.22R
O`NEILL        CLEAR     50  43  78 W7        30.19S
ORD            CLEAR     48  42  80 NW3       30.19R
THEDFORD       CLEAR     47  41  79 W5        30.27S
$$

NEZ041-046>049-061>064-073>077-083>087-211000-
SOUTH CENTRAL NEBRASKA

CITY           SKY/WX    TMP DP  RH WIND       PRES   REMARKS
GRAND ISLAND   CLEAR     52  46  80 W6        30.18R
AURORA         CLEAR     51  47  87 W5        30.17R
HASTINGS       CLEAR     54  46  74 NW8       30.18R
HEBRON         CLEAR     55  50  82 CALM      30.15S
HOLDREGE       CLEAR     54  45  71 CALM      30.20S
KEARNEY *      CLEAR     54  45  71 NW9       30.20R
YORK           CLEAR     50  48  93 NW6       30.16R
$$

NEZ011>018-030>034-042>045-211000-
NORTHEAST NEBRASKA

CITY           SKY/WX    TMP DP  RH WIND       PRES   REMARKS
NORFOLK        CLEAR     52  46  80 W8        30.14S
ALBION         CLEAR     51  43  74 NW5       30.17R
BLAIR          CLEAR     57  50  77 W8        30.09R
COLUMBUS *     CLEAR     48  45  87 W5        30.15R
FREMONT        CLEAR     52  49  90 W5        30.11S
TEKAMAH        CLEAR     56  50  80 W9        30.09R
WAYNE          CLEAR     51  46  80 NW5       30.12S
$$

NEZ050>053-065>068-078-088>093-211000-
SOUTHEAST NEBRASKA

CITY           SKY/WX    TMP DP  RH WIND       PRES   REMARKS
LINCOLN        CLEAR     54  49  83 CALM      30.13R
OMAHA EPPLEY   CLEAR     57  50  77 NW6       30.09R
BEATRICE       CLEAR     52  51  94 W3        30.13R
FALLS CITY     CLEAR     58  55  90 NW6       30.09R
NEBRASKA CITY    N/A     57  49  76 W6        30.10S
PLATTSMOUTH    CLEAR     55  51  83 W7        30.09S
$$

NEZ044-045-051>053-067-211000-
OMAHA AREA

CITY           SKY/WX    TMP DP  RH WIND       PRES   REMARKS
OMAHA EPPLEY   CLEAR     57  50  77 NW6       30.09R
BLAIR          CLEAR     57  50  77 W8        30.09R
FREMONT        CLEAR     52  49  90 W5        30.11S
MILLARD        CLEAR     58  53  83 NW3       30.10R
OFFUTT AFB     CLEAR     55  55  99 NW7       30.09R
PLATTSMOUTH    CLEAR     55  51  83 W7        30.09S
WAHOO          FAIR      55  49  81 NW5       30.12R
$$



USA.gov is the U.S. government's official web portal to all federal, state and local government web resources and services.